When you browse on this site, cookies collect data to enhance your experience and personalize the content and advertising you see.
Visit our Privacy Policy to learn more. By continuing to use the site, you agree to this use of cookies and data.
  • In Lithuania
  • List of Countries
  • For 7 days
  • Water Temperature
  • Satellite Maps
  • Weather Map
  • Weather Widgets
  • user-avatar
    Login

    Hourly Weather Otradnyy

    Today, 23 May, Thursday

    Time Temperature Precipitation Wind Pressure Humidity
    00:00 +14°C° 0.3 mm 3 mps 757 mmHg 94%
    01:00 +14°C° 0.1 mm 3 mps 757 mmHg 95%
    02:00 +14°C° 0.1 mm 3 mps 757 mmHg 95%
    03:00 +14°C° 0 mm 3 mps 756 mmHg 96%
    04:00 +14°C° 0 mm 3 mps 756 mmHg 94%
    05:00 +14°C° 0 mm 3 mps 756 mmHg 93%
    06:00 +15°C° 0 mm 4 mps 756 mmHg 91%
    07:00 +16°C° 0.4 mm 5 mps 756 mmHg 83%
    08:00 +19°C° 0.4 mm 5 mps 756 mmHg 75%
    09:00 +21°C° 0.4 mm 6 mps 756 mmHg 67%
    10:00 +21°C° 0.6 mm 6 mps 756 mmHg 64%
    11:00 +22°C° 0.6 mm 7 mps 755 mmHg 62%
    12:00 +22°C° 0.6 mm 7 mps 755 mmHg 59%
    13:00 +22°C° 0.5 mm 7 mps 755 mmHg 59%
    14:00 +23°C° 0.5 mm 7 mps 755 mmHg 59%
    15:00 +23°C° 0.5 mm 8 mps 755 mmHg 58%
    16:00 +22°C° 0.2 mm 7 mps 755 mmHg 61%
    17:00 +22°C° 0.2 mm 6 mps 755 mmHg 63%
    18:00 +21°C° 0.2 mm 5 mps 755 mmHg 66%
    19:00 +20°C° 0 mm 5 mps 755 mmHg 69%
    20:00 +19°C° 0 mm 5 mps 755 mmHg 72%
    21:00 +18°C° 0 mm 4 mps 755 mmHg 76%
    22:00 +17°C° 0 mm 4 mps 755 mmHg 77%
    23:00 +17°C° 0 mm 4 mps 755 mmHg 79%

    Tomorrow, 24 May, Friday

    Time Temperature Precipitation Wind Pressure Humidity
    00:00 +15°C° 0 mm 4 mps 755 mmHg 80%
    01:00 +15°C° 0 mm 4 mps 755 mmHg 82%
    02:00 +15°C° 0 mm 4 mps 755 mmHg 83%
    03:00 +14°C° 0 mm 4 mps 755 mmHg 84%
    04:00 +14°C° 0 mm 4 mps 755 mmHg 85%
    05:00 +15°C° 0 mm 4 mps 756 mmHg 85%
    06:00 +15°C° 0 mm 4 mps 756 mmHg 86%
    07:00 +18°C° 0 mm 4 mps 756 mmHg 79%
    08:00 +20°C° 0 mm 4 mps 756 mmHg 73%
    09:00 +22°C° 0 mm 4 mps 756 mmHg 66%
    10:00 +23°C° 0 mm 4 mps 756 mmHg 61%
    11:00 +26°C° 0 mm 4 mps 756 mmHg 56%
    12:00 +27°C° 0 mm 5 mps 756 mmHg 51%
    13:00 +27°C° 0 mm 4 mps 756 mmHg 50%
    14:00 +27°C° 0 mm 4 mps 756 mmHg 49%
    15:00 +28°C° 0 mm 4 mps 756 mmHg 48%
    16:00 +27°C° 0 mm 3 mps 756 mmHg 51%
    17:00 +27°C° 0 mm 2 mps 756 mmHg 54%
    18:00 +26°C° 0 mm 2 mps 755 mmHg 57%
    19:00 +25°C° 0 mm 2 mps 756 mmHg 60%
    20:00 +23°C° 0 mm 1 mps 756 mmHg 63%
    21:00 +21°C° 0 mm 1 mps 756 mmHg 66%
    22:00 +21°C° 0 mm 1 mps 756 mmHg 67%
    23:00 +18°C° 0 mm 0 mps 756 mmHg 68%

    Day after tomorrow, 25 May, Saturday

    Time Temperature Precipitation Wind Pressure Humidity
    00:00 +18°C° 0 mm 0 mps 756 mmHg 68%
    01:00 +19°C° 0 mm 1 mps 756 mmHg 70%
    02:00 +19°C° 0 mm 1 mps 756 mmHg 73%
    03:00 +19°C° 0 mm 1 mps 756 mmHg 75%
    04:00 +18°C° 0 mm 2 mps 755 mmHg 76%
    05:00 +18°C° 0 mm 2 mps 755 mmHg 77%
    06:00 +19°C° 0 mm 2 mps 755 mmHg 78%
    07:00 +21°C° 0 mm 3 mps 755 mmHg 71%
    08:00 +24°C° 0 mm 3 mps 755 mmHg 65%
    09:00 +26°C° 0 mm 4 mps 755 mmHg 58%
    10:00 +27°C° 0 mm 4 mps 755 mmHg 54%
    11:00 +28°C° 0 mm 4 mps 755 mmHg 51%
    12:00 +29°C° 0 mm 5 mps 755 mmHg 47%
    13:00 +27°C° 0.4 mm 4 mps 754 mmHg 54%
    14:00 +26°C° 0.4 mm 4 mps 754 mmHg 61%
    15:00 +25°C° 0.4 mm 3 mps 753 mmHg 67%
    16:00 +25°C° 0.7 mm 3 mps 753 mmHg 69%
    17:00 +25°C° 0.7 mm 3 mps 753 mmHg 70%
    18:00 +25°C° 0.7 mm 3 mps 753 mmHg 72%
    19:00 +22°C° 1.1 mm 4 mps 753 mmHg 79%
    20:00 +20°C° 1.1 mm 4 mps 753 mmHg 86%
    21:00 +18°C° 1.1 mm 4 mps 753 mmHg 93%
    22:00 +17°C° 0 mm 5 mps 753 mmHg 93%
    23:00 +16°C° 0 mm 5 mps 753 mmHg 93%

    26 May, Sunday

    Time Temperature Precipitation Wind Pressure Humidity
    00:00 +16°C° 0 mm 6 mps 754 mmHg 93%
    01:00 +16°C° 0 mm 6 mps 754 mmHg 93%
    02:00 +16°C° 0 mm 5 mps 754 mmHg 93%
    03:00 +15°C° 0 mm 5 mps 754 mmHg 93%
    04:00 +16°C° 0 mm 5 mps 754 mmHg 93%
    05:00 +16°C° 0 mm 5 mps 754 mmHg 93%
    06:00 +16°C° 0 mm 6 mps 755 mmHg 93%
    07:00 +19°C° 0.6 mm 6 mps 755 mmHg 86%
    08:00 +20°C° 0.6 mm 6 mps 755 mmHg 79%
    09:00 +21°C° 0.6 mm 6 mps 755 mmHg 72%
    10:00 +22°C° 0.5 mm 6 mps 756 mmHg 72%
    11:00 +22°C° 0.5 mm 7 mps 756 mmHg 71%
    12:00 +22°C° 0.5 mm 7 mps 756 mmHg 70%
    13:00 +23°C° 0.3 mm 7 mps 756 mmHg 68%
    14:00 +23°C° 0.3 mm 7 mps 756 mmHg 65%
    15:00 +24°C° 0.3 mm 7 mps 756 mmHg 62%
    16:00 +24°C° 0 mm 7 mps 756 mmHg 64%
    17:00 +23°C° 0 mm 6 mps 756 mmHg 66%
    18:00 +23°C° 0 mm 5 mps 756 mmHg 67%
    19:00 +22°C° 0 mm 5 mps 756 mmHg 73%
    20:00 +20°C° 0 mm 5 mps 757 mmHg 78%
    21:00 +19°C° 0 mm 4 mps 757 mmHg 83%
    22:00 +19°C° 0 mm 5 mps 757 mmHg 84%
    23:00 +19°C° 0 mm 5 mps 757 mmHg 85%

    27 May, Monday

    Time Temperature Precipitation Wind Pressure Humidity
    00:00 +17°C° 0 mm 6 mps 757 mmHg 86%
    01:00 +17°C° 0 mm 6 mps 757 mmHg 88%
    02:00 +17°C° 0 mm 6 mps 758 mmHg 90%
    03:00 +17°C° 0 mm 6 mps 758 mmHg 92%
    04:00 +17°C° 0 mm 5 mps 758 mmHg 92%
    05:00 +17°C° 0 mm 5 mps 759 mmHg 92%
    06:00 +18°C° 0 mm 4 mps 759 mmHg 92%
    07:00 +20°C° 0 mm 4 mps 760 mmHg 85%
    08:00 +22°C° 0 mm 4 mps 760 mmHg 77%
    09:00 +24°C° 0 mm 3 mps 760 mmHg 69%
    10:00 +25°C° 0 mm 3 mps 761 mmHg 64%
    11:00 +26°C° 0 mm 4 mps 761 mmHg 58%
    12:00 +28°C° 0 mm 4 mps 761 mmHg 52%
    13:00 +28°C° 0 mm 4 mps 761 mmHg 52%
    14:00 +28°C° 0 mm 4 mps 761 mmHg 52%
    15:00 +28°C° 0 mm 4 mps 761 mmHg 52%
    16:00 +28°C° 0 mm 4 mps 761 mmHg 54%
    17:00 +28°C° 0 mm 3 mps 761 mmHg 57%
    18:00 +27°C° 0 mm 3 mps 761 mmHg 60%
    19:00 +25°C° 0 mm 2 mps 762 mmHg 65%
    20:00 +23°C° 0 mm 2 mps 762 mmHg 70%
    21:00 +20°C° 0 mm 2 mps 762 mmHg 75%
    22:00 +20°C° 0 mm 2 mps 762 mmHg 77%
    23:00 +20°C° 0 mm 1 mps 762 mmHg 78%

    28 May, Tuesday

    Time Temperature Precipitation Wind Pressure Humidity
    00:00 +19°C° 0 mm 1 mps 763 mmHg 80%
    01:00 +19°C° 0 mm 1 mps 762 mmHg 81%
    02:00 +17°C° 0 mm 0 mps 762 mmHg 82%
    03:00 +16°C° 0 mm 0 mps 762 mmHg 83%
    04:00 +17°C° 0 mm 0 mps 763 mmHg 82%
    05:00 +20°C° 0 mm 1 mps 763 mmHg 81%
    06:00 +20°C° 0 mm 1 mps 763 mmHg 80%
    07:00 +21°C° 0 mm 2 mps 763 mmHg 74%
    08:00 +24°C° 0 mm 3 mps 763 mmHg 68%
    09:00 +26°C° 0 mm 3 mps 763 mmHg 62%
    10:00 +27°C° 0 mm 3 mps 763 mmHg 57%
    11:00 +29°C° 0 mm 4 mps 762 mmHg 52%
    12:00 +30°C° 0 mm 4 mps 762 mmHg 47%
    13:00 +30°C° 0 mm 4 mps 762 mmHg 46%
    14:00 +32°C° 0 mm 4 mps 762 mmHg 45%
    15:00 +32°C° 0 mm 4 mps 761 mmHg 44%
    16:00 +31°C° 0 mm 3 mps 761 mmHg 49%
    17:00 +30°C° 0 mm 3 mps 761 mmHg 53%
    18:00 +30°C° 0 mm 3 mps 761 mmHg 57%
    19:00 +28°C° 0 mm 3 mps 761 mmHg 59%
    20:00 +26°C° 0 mm 3 mps 761 mmHg 61%
    21:00 +24°C° 0 mm 3 mps 761 mmHg 64%
    22:00 +22°C° 0 mm 3 mps 761 mmHg 65%
    23:00 +22°C° 0 mm 3 mps 760 mmHg 65%
    Show more